Location: Wien
(48.2082°N, 16.3738°E)
Time: 17:00:56
(UTC+02:00)

BlueWalker 3 - Visible Passes

Search period start: 04 October 2024 00:00
Search period end: 14 October 2024 00:00
Orbit: 473 x 486 km, 53.2° (Epoch: 03 October)

Date Brightness Start Highest point End Pass type
(mag) Time Alt. Az. Time Alt. Az. Time Alt. Az.
04 Oct 3.6 05:53:59 10° SSW 05:57:14 29° SE 06:00:30 10° ENE visible
05 Oct 3.6 05:26:20 12° SSW 05:29:10 27° SE 05:32:19 10° E visible
06 Oct 3.7 04:59:47 20° SSE 05:01:04 24° SE 05:04:06 10° E visible
07 Oct 3.8 04:33:06 22° SE 04:33:06 22° SE 04:35:49 10° E visible
07 Oct 1.8 06:07:18 13° WSW 06:10:35 80° NNW 06:14:17 10° ENE visible
08 Oct 4.6 04:06:16 16° ESE 04:06:16 16° ESE 04:07:30 10° E visible
08 Oct 1.7 05:40:29 28° WSW 05:42:21 86° NNW 05:46:04 10° ENE visible
09 Oct 1.7 05:13:33 63° SW 05:14:05 87° SSE 05:17:48 10° ENE visible
10 Oct 2.4 04:46:31 55° ENE 04:46:31 55° ENE 04:49:30 10° ENE visible
10 Oct 2.6 06:20:42 11° W 06:24:01 40° N 06:27:32 10° ENE visible
11 Oct 4.0 04:19:24 26° ENE 04:19:24 26° ENE 04:21:10 10° ENE visible
11 Oct 2.6 05:53:35 21° WNW 05:55:38 41° N 05:59:11 10° ENE visible
12 Oct 5.0 03:52:13 14° ENE 03:52:13 14° ENE 03:52:46 10° ENE visible
12 Oct 2.5 05:26:24 36° NW 05:27:14 42° NNW 05:30:47 10° ENE visible
13 Oct 2.7 04:59:10 42° N 04:59:10 42° N 05:02:22 10° ENE visible
13 Oct 2.8 06:33:47 10° WNW 06:37:17 39° N 06:40:47 10° ENE visible
